Terug naar catalogus

STARLINK-30755

ActiefCommunicatieVLEO
NORAD 58186·PAYLOAD·🇺🇸 United States

Gelanceerd Oct 30, 2023 vanaf Cape Canaveral Space Force Station

Loading…

Volgende Passages (komende 24 uur)

TLE

VersSource: CelesTrak SupGP

Epoch: Sep 15, 2026, 02:08 UTC

1 58186C 23167M   26258.08937500  .00065963  00000+0  23908-2 0  2582
2 58186  43.0015 153.5269 0001309 274.3578 107.4378 15.27524182    11

Volg STARLINK-30755 in realtime met AllMySat

Download on the App Store